Regional Weather Roundup
Issued by NWS

Home | Current Version | Previous Version | Text Only | Print | Product List | Glossary Off
Versions: 1 2 3 4 5 6 7 8 9 10 11 12 13 14 15 16 17 18 19 20 21 22 23 24 25 26 27 28 29 30 31 32 33 34 35 36 37 38 39 40 41 42 43 44 45 46 47 48 49 50

000
ASUS43 KFSD 242210
RWRSD

WEATHER ROUNDUP FOR SOUTH DAKOTA
NATIONAL WEATHER SERVICE SIOUX FALLS SD
400 PM CST WED DEC 24 2014

NOTE: "FAIR" INDICATES FEW OR NO CLOUDS BELOW 12,000 FEET WITH NO
SIGNIFICANT WEATHER AND/OR OBSTRUCTIONS TO VISIBILITY.


SDZ001>005-009-010-012>017-242300-
NORTHWEST AND NORTH CENTRAL SOUTH DAKOTA

CITY           SKY/WX    TMP DP  RH WIND       PRES   REMARKS
BUFFALO          N/A     39  27  62 SW7       29.41F
FAITH            N/A     34  23  64 S7        29.50F WCI  28
MOBRIDGE       MOCLDY    28  22  78 S8        29.51F WCI  20
$$

SDZ012>016-024>037-041>051-057-063-072>074-242300-
SOUTHWEST AND SOUTH CENTRAL SOUTH DAKOTA

CITY           SKY/WX    TMP DP  RH WIND       PRES   REMARKS
RAPID CTY ARPT CLOUDY    37  27  67 E3        29.50F
PIERRE         CLOUDY    29  22  75 SE10      29.55F WCI  20
CUSTER         CLOUDY    36  19  50 W13       29.52F
ELLSWORTH AFB  CLOUDY    38  27  64 CALM      29.50F
PHILIP         CLOUDY    37  26  64 CALM      29.53F
PINE RIDGE     CLOUDY    37  22  54 W6        29.57F
SPEARFISH      FAIR      39  27  60 CALM      29.49F
WINNER         FAIR      34  23  64 S7        29.59F WCI  28
$$

SDZ004>011-016>023-039-040-242300-
NORTHEAST SOUTH DAKOTA

CITY           SKY/WX    TMP DP  RH WIND       PRES   REMARKS
ABERDEEN       CLOUDY    28  25  88 S14       29.61F WCI  17
WATERTOWN      CLOUDY    25  23  92 S9        29.61F FOG     WCI  15
SISSETON         N/A     27  25  92 SW7       29.61  WCI  19
$$

SDZ017-020-022-023-036>040-048>070-242300-
SOUTHEAST SOUTH DAKOTA

CITY           SKY/WX    TMP DP  RH WIND       PRES   REMARKS
SIOUX FALLS    CLOUDY    25  24  96 SW7       29.68F FOG     WCI  17
HURON          CLOUDY    28  24  85 S12       29.64F WCI  18
CHAMBERLAIN    MOCLDY    27  23  86 SE9       29.60F WCI  17
MITCHELL       CLOUDY    29  26  89 S6        29.66F WCI  23
YANKTON        CLOUDY    28  25  86 SW7       29.71F WCI  21
$$

ABBREVIATIONS USED IN REMARKS
   TC - TEMPERATURE IN CELSIUS
  WCI - WIND CHILL INDEX
   HX - HEAT INDEX
  VSB - VISIBILITY



USA.gov is the U.S. government's official web portal to all federal, state and local government web resources and services.